| time (UTC) | temp F | wind direction | speed knots | gust knots | rain 1hr in | rain 24hr in | rain mn in | humidity % | barometer mb |
| 20260502233641 | 51 | 207 | 0.0 | 1.7 | 0.00 | 0.00 | 0.00 | 65 | 987.4 |
| 20260502232429 | 52 | 68 | 0.0 | 0.0 | 0.00 | 0.00 | 0.00 | 65 | 987.1 |
| 20260502231840 | 52 | 176 | 0.9 | 1.7 | 0.00 | 0.00 | 0.00 | 61 | 987.1 |
| 20260502231212 | 52 | 212 | 0.9 | 0.9 | 0.00 | 0.00 | 0.00 | 60 | 987.8 |
| 20260502230630 | 53 | 240 | 0.9 | 1.7 | 0.00 | 0.00 | 0.00 | 59 | 987.1 |
| 20260502230040 | 53 | 253 | 0.9 | 1.7 | 0.00 | 0.00 | 0.00 | 56 | 987.4 |
| 20260502225434 | 53 | 273 | 0.9 | 5.2 | 0.00 | 0.00 | 0.00 | 49 | 987.4 |
| 20260502224832 | 54 | 206 | 1.7 | 2.6 | 0.00 | 0.00 | 0.00 | 47 | 987.4 |
| 20260502224226 | 54 | 255 | 0.9 | 3.5 | 0.00 | 0.00 | 0.00 | 47 | 987.4 |
| 20260502223035 | 54 | 268 | 3.5 | 5.2 | 0.00 | 0.00 | 0.00 | 46 | 987.4 |
| 20260502222421 | 53 | 262 | 1.7 | 3.5 | 0.00 | 0.00 | 0.00 | 49 | 987.4 |
| 20260502221839 | 53 | 270 | 0.0 | 1.7 | 0.00 | 0.00 | 0.00 | 50 | 987.4 |
| 20260502221254 | 54 | 273 | 0.9 | 2.6 | 0.00 | 0.00 | 0.00 | 50 | 987.1 |
| 20260502220621 | 54 | 263 | 0.0 | 0.9 | 0.00 | 0.00 | 0.00 | 46 | 987.1 |
| 20260502220030 | 54 | 258 | 0.9 | 2.6 | 0.00 | 0.00 | 0.00 | 43 | 987.1 |
| 20260502215411 | 54 | 300 | 3.5 | 6.1 | 0.00 | 0.00 | 0.00 | 45 | 987.1 |
| 20260502214823 | 55 | 326 | 5.2 | 7.8 | 0.00 | 0.00 | 0.00 | 43 | 987.1 |
| 20260502213651 | 56 | 290 | 3.5 | 5.2 | 0.00 | 0.00 | 0.00 | 41 | 987.1 |
| 20260502213041 | 54 | 255 | 2.6 | 5.2 | 0.00 | 0.00 | 0.00 | 43 | 987.1 |
| 20260502212448 | 54 | 293 | 7.0 | 7.8 | 0.00 | 0.00 | 0.00 | 44 | 987.1 |
| 20260502211814 | 54 | 304 | 2.6 | 7.8 | 0.00 | 0.00 | 0.00 | 43 | 986.7 |
| 20260502211238 | 54 | 209 | 3.5 | 7.0 | 0.00 | 0.00 | 0.00 | 43 | 986.7 |
| 20260502210627 | 55 | 282 | 0.0 | 6.1 | 0.00 | 0.00 | 0.00 | 46 | 986.7 |
| 20260502210034 | 55 | 127 | 0.9 | 7.0 | 0.00 | 0.00 | 0.00 | 44 | 986.7 |
| 20260502205414 | 55 | 245 | 0.0 | 2.6 | 0.00 | 0.00 | 0.00 | 46 | 986.7 |
| 20260502204235 | 55 | 200 | 1.7 | 3.5 | 0.00 | 0.00 | 0.00 | 45 | 987.1 |
| 20260502203612 | 55 | 207 | 3.5 | 7.8 | 0.00 | 0.00 | 0.00 | 45 | 987.1 |
| 20260502203052 | 55 | 245 | 0.9 | 3.5 | 0.00 | 0.00 | 0.00 | 47 | 987.1 |
| 20260502202443 | 54 | 192 | 2.6 | 7.0 | 0.00 | 0.00 | 0.00 | 44 | 987.1 |
| 20260502201845 | 54 | 298 | 2.6 | 7.0 | 0.00 | 0.00 | 0.00 | 45 | 987.1 |
| 20260502201211 | 54 | 348 | 2.6 | 3.5 | 0.00 | 0.00 | 0.00 | 44 | 987.1 |
| 20260502200650 | 55 | 226 | 3.5 | 3.5 | 0.00 | 0.00 | 0.00 | 44 | 987.1 |
| 20260502200039 | 54 | 209 | 2.6 | 8.7 | 0.00 | 0.00 | 0.00 | 44 | 987.1 |
| 20260502195414 | 54 | 275 | 4.3 | 6.1 | 0.00 | 0.00 | 0.00 | 44 | 987.4 |
| 20260502194838 | 55 | 231 | 4.3 | 6.1 | 0.00 | 0.00 | 0.00 | 43 | 987.4 |
| 20260502194248 | 54 | 281 | 2.6 | 5.2 | 0.00 | 0.00 | 0.00 | 44 | 987.4 |
| 20260502193634 | 55 | 319 | 1.7 | 5.2 | 0.00 | 0.00 | 0.00 | 43 | 987.4 |
| 20260502193038 | 55 | 245 | 1.7 | 5.2 | 0.00 | 0.00 | 0.00 | 45 | 987.4 |
| 20260502192426 | 54 | 301 | 1.7 | 5.2 | 0.00 | 0.00 | 0.00 | 45 | 987.8 |
| 20260502191852 | 53 | 277 | 1.7 | 1.7 | 0.00 | 0.00 | 0.00 | 47 | 987.4 |
| 20260502190615 | 53 | 266 | 3.5 | 5.2 | 0.00 | 0.00 | 0.00 | 47 | 987.4 |
| 20260502190018 | 54 | 273 | 1.7 | 6.1 | 0.00 | 0.00 | 0.00 | 46 | 987.8 |
| 20260502185437 | 54 | 238 | 2.6 | 6.1 | 0.00 | 0.00 | 0.00 | 45 | 987.8 |
| 20260502184255 | 54 | 232 | 3.5 | 5.2 | 0.00 | 0.00 | 0.00 | 46 | 987.8 |
| 20260502183654 | 54 | 236 | 5.2 | 6.1 | 0.00 | 0.00 | 0.00 | 46 | 987.8 |
| 20260502183016 | 54 | 231 | 1.7 | 5.2 | 0.00 | 0.00 | 0.00 | 46 | 987.8 |
| 20260502182440 | 54 | 243 | 3.5 | 7.0 | 0.00 | 0.00 | 0.00 | 47 | 987.8 |
| 20260502181833 | 54 | 253 | 1.7 | 3.5 | 0.00 | 0.00 | 0.00 | 50 | 988.1 |
| 20260502181254 | 53 | 324 | 1.7 | 3.5 | 0.00 | 0.00 | 0.00 | 47 | 987.8 |
| 20260502180621 | 53 | 247 | 2.6 | 3.5 | 0.00 | 0.00 | 0.00 | 48 | 987.8 |
| 20260502164244 | 53 | 101 | 0.9 | 5.2 | 0.00 | 0.00 | 0.00 | 49 | 988.4 |
| 20260502163631 | 54 | 284 | 5.2 | 7.0 | 0.00 | 0.00 | 0.00 | 47 | 988.4 |
| 20260502163054 | 54 | 81 | 0.9 | 2.6 | 0.00 | 0.00 | 0.00 | 47 | 988.4 |
| 20260502162442 | 54 | 322 | 0.9 | 3.5 | 0.00 | 0.00 | 0.00 | 49 | 988.4 |
| 20260502161816 | 54 | 310 | 1.7 | 7.0 | 0.00 | 0.00 | 0.00 | 47 | 988.4 |
| 20260502161221 | 55 | 273 | 3.5 | 7.0 | 0.00 | 0.00 | 0.00 | 46 | 988.1 |
| 20260502160623 | 53 | 196 | 1.7 | 3.5 | 0.00 | 0.00 | 0.00 | 46 | 988.4 |
| 20260502151833 | 54 | 296 | 5.2 | 10.4 | 0.00 | 0.00 | 0.00 | 50 | 989.1 |
| 20260502151241 | 54 | 229 | 1.7 | 2.6 | 0.00 | 0.00 | 0.00 | 51 | 988.8 |
| 20260502150650 | 54 | 200 | 0.9 | 2.6 | 0.00 | 0.00 | 0.00 | 52 | 989.1 |
| 20260502130631 | 47 | 50 | 0.0 | 0.9 | 0.00 | 0.00 | 0.00 | 83 | 989.1 |
| 20260502123635 | 43 | 349 | 0.0 | 0.0 | 0.00 | 0.00 | 0.00 | 93 | 989.1 |
| 20260502122440 | 41 | 226 | 0.0 | 0.0 | 0.00 | 0.00 | 0.00 | 98 | 989.1 |
| 20260502121222 | 40 | 226 | 0.0 | 0.0 | 0.00 | 0.00 | 0.00 | 98 | 988.8 |
| 20260502120644 | 39 | 226 | 0.0 | 0.0 | 0.00 | 0.00 | 0.00 | 98 | 988.8 |
| 20260502115451 | 39 | 226 | 0.0 | 0.0 | 0.00 | 0.00 | 0.00 | 98 | 989.1 |
| 20260502114813 | 39 | 226 | 0.0 | 0.0 | 0.00 | 0.00 | 0.00 | 98 | 989.1 |
| 20260502114232 | 39 | 226 | 0.0 | 0.0 | 0.00 | 0.00 | 0.00 | 98 | 988.8 |
| 20260502113611 | 38 | 226 | 0.0 | 0.0 | 0.00 | 0.00 | 0.00 | 98 | 989.1 |
| 20260502113039 | 38 | 226 | 0.0 | 0.0 | 0.00 | 0.00 | 0.00 | 98 | 989.1 |
| 20260502112437 | 38 | 226 | 0.0 | 0.9 | 0.00 | 0.00 | 0.00 | 99 | 989.1 |
| 20260502111828 | 38 | 226 | 0.0 | 0.0 | 0.00 | 0.00 | 0.00 | 99 | 988.8 |
| 20260502111226 | 38 | 226 | 0.9 | 0.9 | 0.00 | 0.00 | 0.00 | 99 | 989.1 |
| 20260502110017 | 37 | 226 | 0.0 | 0.0 | 0.00 | 0.00 | 0.00 | 99 | 988.4 |
| 20260502105418 | 37 | 216 | 0.0 | 0.0 | 0.00 | 0.00 | 0.00 | 99 | 988.8 |
| 20260502104829 | 37 | 227 | 0.0 | 0.0 | 0.00 | 0.00 | 0.00 | 99 | 988.4 |
| 20260502104217 | 37 | 228 | 0.0 | 0.0 | 0.00 | 0.00 | 0.00 | 99 | 988.8 |
| 20260502103635 | 37 | 228 | 0.0 | 0.9 | 0.00 | 0.00 | 0.00 | 99 | 988.4 |
| 20260502103043 | 37 | 228 | 0.9 | 0.9 | 0.00 | 0.00 | 0.00 | 99 | 988.8 |
| 20260502102419 | 37 | 228 | 0.0 | 0.9 | 0.00 | 0.00 | 0.00 | 99 | 988.8 |
| 20260502101846 | 37 | 228 | 0.0 | 0.0 | 0.00 | 0.00 | 0.00 | 99 | 989.1 |
| 20260502100630 | 37 | 228 | 0.0 | 0.0 | 0.00 | 0.00 | 0.00 | 98 | 989.1 |
| 20260502091252 | 38 | 229 | 0.0 | 0.0 | 0.00 | 0.00 | 0.00 | 97 | 989.1 |
| 20260502090624 | 38 | 229 | 0.0 | 0.0 | 0.00 | 0.00 | 0.00 | 97 | 989.5 |
| 20260502071224 | 40 | 230 | 0.0 | 0.9 | 0.00 | 0.00 | 0.00 | 92 | 988.8 |
| 20260502070652 | 40 | 229 | 0.0 | 0.9 | 0.00 | 0.00 | 0.00 | 91 | 988.8 |
| 20260502070035 | 40 | 223 | 0.9 | 0.9 | 0.00 | 0.00 | 0.00 | 91 | 988.8 |
| 20260502063651 | 41 | 221 | 0.0 | 0.0 | 0.00 | 0.00 | 0.00 | 88 | 988.8 |
| 20260502063042 | 42 | 220 | 0.0 | 0.0 | 0.00 | 0.00 | 0.00 | 87 | 988.8 |
| 20260502061814 | 42 | 233 | 0.9 | 0.9 | 0.00 | 0.00 | 0.00 | 86 | 988.8 |
| 20260502061249 | 42 | 233 | 0.0 | 0.0 | 0.00 | 0.00 | 0.00 | 84 | 988.8 |
| 20260502060622 | 43 | 201 | 0.9 | 0.9 | 0.00 | 0.00 | 0.00 | 83 | 988.8 |
| 20260502060047 | 43 | 236 | 0.0 | 0.9 | 0.00 | 0.00 | 0.00 | 83 | 989.1 |
| 20260502055448 | 44 | 235 | 0.0 | 1.7 | 0.00 | 0.00 | 0.00 | 82 | 988.8 |
| 20260502054820 | 44 | 220 | 0.0 | 0.9 | 0.00 | 0.00 | 0.00 | 81 | 989.1 |
| 20260502054251 | 44 | 229 | 0.0 | 1.7 | 0.00 | 0.00 | 0.00 | 81 | 989.1 |
| 20260502053021 | 44 | 234 | 0.0 | 0.0 | 0.00 | 0.00 | 0.00 | 79 | 988.8 |
| 20260502052415 | 45 | 234 | 0.0 | 0.9 | 0.00 | 0.00 | 0.00 | 78 | 989.1 |
| 20260502051826 | 45 | 234 | 0.0 | 0.0 | 0.00 | 0.00 | 0.00 | 77 | 988.8 |
| 20260502051220 | 46 | 234 | 0.0 | 0.0 | 0.00 | 0.00 | 0.00 | 76 | 989.1 |
| 20260502050628 | 46 | 235 | 0.0 | 0.0 | 0.00 | 0.00 | 0.00 | 75 | 989.1 |
| 20260502050039 | 46 | 234 | 0.0 | 0.9 | 0.00 | 0.00 | 0.00 | 75 | 989.1 |
| 20260502045433 | 46 | 242 | 0.0 | 0.9 | 0.00 | 0.00 | 0.00 | 74 | 988.8 |
| 20260502044838 | 47 | 242 | 0.0 | 0.9 | 0.00 | 0.00 | 0.00 | 74 | 989.1 |
| 20260502043629 | 48 | 265 | 0.0 | 0.9 | 0.00 | 0.00 | 0.00 | 73 | 989.1 |
| 20260502043043 | 48 | 172 | 0.9 | 0.9 | 0.00 | 0.00 | 0.00 | 69 | 989.1 |
| 20260502042435 | 49 | 358 | 0.0 | 0.9 | 0.00 | 0.00 | 0.00 | 70 | 988.8 |
| 20260502041810 | 49 | 289 | 0.0 | 1.7 | 0.00 | 0.00 | 0.00 | 67 | 989.1 |
| 20260502041217 | 49 | 272 | 3.5 | 3.5 | 0.00 | 0.00 | 0.00 | 69 | 989.1 |
| 20260502040649 | 50 | 225 | 1.7 | 2.6 | 0.00 | 0.00 | 0.00 | 64 | 988.8 |
| 20260502040019 | 50 | 268 | 1.7 | 2.6 | 0.00 | 0.00 | 0.00 | 63 | 989.1 |
| 20260502035442 | 50 | 221 | 0.9 | 1.7 | 0.00 | 0.00 | 0.00 | 65 | 988.8 |
| 20260502034810 | 50 | 215 | 0.0 | 2.6 | 0.00 | 0.00 | 0.00 | 64 | 989.1 |
| 20260502034246 | 50 | 283 | 0.0 | 0.9 | 0.00 | 0.00 | 0.00 | 64 | 988.8 |
| 20260502033649 | 51 | 300 | 0.0 | 0.9 | 0.00 | 0.00 | 0.00 | 65 | 989.1 |
| 20260502033012 | 51 | 207 | 0.9 | 5.2 | 0.00 | 0.00 | 0.00 | 63 | 988.8 |
| 20260502032426 | 51 | 223 | 1.7 | 5.2 | 0.00 | 0.00 | 0.00 | 63 | 989.1 |
| 20260502031841 | 51 | 341 | 2.6 | 7.0 | 0.00 | 0.00 | 0.00 | 62 | 989.1 |
| 20260502031213 | 52 | 277 | 2.6 | 3.5 | 0.00 | 0.00 | 0.00 | 62 | 988.8 |
| 20260502030616 | 52 | 203 | 2.6 | 6.1 | 0.00 | 0.00 | 0.00 | 66 | 988.8 |
| 20260502030046 | 52 | 311 | 3.5 | 7.0 | 0.00 | 0.00 | 0.00 | 66 | 988.8 |
| 20260502025414 | 52 | 282 | 0.9 | 5.2 | 0.00 | 0.00 | 0.00 | 68 | 988.8 |
| 20260502024827 | 52 | 244 | 0.9 | 6.1 | 0.00 | 0.00 | 0.00 | 68 | 989.1 |
| 20260502024219 | 53 | 279 | 2.6 | 6.1 | 0.00 | 0.00 | 0.00 | 68 | 988.4 |
| 20260502023624 | 53 | 159 | 2.6 | 6.1 | 0.00 | 0.00 | 0.00 | 69 | 988.4 |
| 20260502023047 | 53 | 270 | 0.9 | 3.5 | 0.00 | 0.00 | 0.00 | 69 | 988.4 |
| 20260502022427 | 53 | 222 | 4.3 | 6.1 | 0.00 | 0.00 | 0.00 | 69 | 988.4 |
| 20260502021812 | 53 | 258 | 2.6 | 9.6 | 0.00 | 0.00 | 0.00 | 69 | 988.4 |
| 20260502021234 | 53 | 282 | 0.9 | 1.7 | 0.00 | 0.00 | 0.00 | 71 | 988.1 |
| 20260502020614 | 53 | 291 | 2.6 | 3.5 | 0.00 | 0.00 | 0.00 | 69 | 988.4 |
| 20260502020036 | 53 | 196 | 0.9 | 7.0 | 0.00 | 0.00 | 0.00 | 70 | 988.1 |
| 20260502015431 | 53 | 218 | 0.0 | 1.7 | 0.00 | 0.00 | 0.00 | 70 | 987.8 |
| 20260502014842 | 53 | 191 | 0.9 | 3.5 | 0.00 | 0.00 | 0.00 | 71 | 987.4 |
| 20260502014227 | 53 | 266 | 0.9 | 1.7 | 0.00 | 0.00 | 0.00 | 74 | 987.4 |
| 20260502013620 | 53 | 247 | 0.0 | 0.9 | 0.00 | 0.00 | 0.00 | 73 | 987.1 |
| 20260502013036 | 53 | 255 | 0.0 | 0.9 | 0.00 | 0.00 | 0.00 | 71 | 987.1 |
| 20260502012450 | 53 | 237 | 0.0 | 0.0 | 0.00 | 0.00 | 0.00 | 74 | 987.1 |
| 20260502011841 | 53 | 249 | 0.0 | 0.9 | 0.00 | 0.00 | 0.00 | 73 | 987.1 |
| 20260502011224 | 53 | 240 | 0.9 | 0.9 | 0.00 | 0.00 | 0.00 | 73 | 986.7 |
| 20260502010625 | 54 | 242 | 0.9 | 1.7 | 0.00 | 0.00 | 0.00 | 71 | 987.1 |
| 20260502010053 | 54 | 253 | 0.0 | 0.9 | 0.00 | 0.00 | 0.00 | 69 | 986.7 |
| 20260502005446 | 54 | 261 | 0.9 | 0.9 | 0.00 | 0.00 | 0.00 | 66 | 986.7 |
| 20260502004843 | 54 | 237 | 0.9 | 0.9 | 0.00 | 0.00 | 0.00 | 66 | 986.7 |
| 20260502004227 | 54 | 49 | 1.7 | 1.7 | 0.00 | 0.00 | 0.00 | 65 | 986.7 |
| 20260502003649 | 55 | 282 | 1.7 | 3.5 | 0.00 | 0.00 | 0.00 | 66 | 986.4 |
| 20260502002449 | 55 | 285 | 3.5 | 8.7 | 0.00 | 0.00 | 0.00 | 64 | 986.4 |
| 20260502001832 | 56 | 276 | 2.6 | 6.1 | 0.00 | 0.00 | 0.00 | 61 | 986.1 |
| 20260502001246 | 56 | 291 | 4.3 | 7.0 | 0.00 | 0.00 | 0.00 | 61 | 986.1 |
| 20260502000031 | 56 | 297 | 5.2 | 7.8 | 0.00 | 0.00 | 0.00 | 60 | 986.1 |
| 20260501235453 | 57 | 291 | 5.2 | 7.0 | 0.00 | 0.00 | 0.00 | 60 | 985.7 |
| 20260501234840 | 57 | 313 | 3.5 | 9.6 | 0.00 | 0.00 | 0.00 | 59 | 985.4 |
| 20260501234253 | 57 | 238 | 1.7 | 1.7 | 0.00 | 0.00 | 0.00 | 64 | 985.4 |